Location: *
(43.7000°S, 168.7000°W)
Time: 10:28:34
(UTC+00:00)

Cosmos 1536 Rocket - Pass Details

Date: 07 July 2020
Orbit: 604 x 633 km, 82.5° (Epoch: 09 August)

Event Time Altitude Azimuth Distance (km) Brightness Sun altitude
Rises 17:33:08 0° 350° (N) 2,866 7.1 -13.0°
Reaches altitude 10° 17:35:20 10° 348° (NNW) 1,967 6.2 -12.7°
Maximum altitude 17:39:42 78° 261° (W) 636 3.5 -11.9°
Drops below altitude 10° 17:44:07 10° 174° (S) 1,991 6.0 -11.2°
Sets 17:46:21 0° 173° (S) 2,903 6.9 -10.8°
